JZR601 OKKK-UBBB

Flight info

Callsign JZR601
Flight time 1h 42m
Altitude 38000
Route ALVAX B417 MAH W31 EGVAX/N0443F390 G667 SAV/N0439F380 N72 BATEV T443 MOSUM
Aircraft A20N/M-SDE2E3FGHIRWXY/LB1

Departure

Time 2026-05-05 10:06
Airport Kuwait International Airport (OKKK)

Arrival

Time 2026-05-05 11:49
Airport Heydar Aliyev International Airport (UBBB)
Time Latitude Longitude Altitude Speed Heading
2026-05-05 09:29 29.23993 47.97281 166 ft 0 kts 305°
2026-05-05 09:56 29.23980 47.97303 166 ft 4 kts 306°
2026-05-05 09:56 29.23964 47.97327 166 ft 4 kts 312°
2026-05-05 09:57 29.23946 47.97347 166 ft 4 kts 327°
2026-05-05 09:57 29.23922 47.97360 166 ft 4 kts 343°
2026-05-05 09:57 29.23904 47.97366 166 ft 1 kts 347°
2026-05-05 09:57 29.23901 47.97367 166 ft 0 kts 347°
2026-05-05 10:00 29.23903 47.97364 166 ft 1 kts 320°
2026-05-05 10:00 29.23896 47.97352 166 ft 3 kts 204°
2026-05-05 10:01 29.23839 47.97387 166 ft 15 kts 147°
2026-05-05 10:01 29.23717 47.97455 166 ft 21 kts 166°
2026-05-05 10:01 29.23638 47.97410 166 ft 9 kts 244°
2026-05-05 10:01 29.23606 47.97331 166 ft 12 kts 245°
2026-05-05 10:02 29.23569 47.97232 166 ft 15 kts 246°
2026-05-05 10:02 29.23525 47.97117 166 ft 17 kts 245°
2026-05-05 10:02 29.23473 47.96993 165 ft 18 kts 244°
2026-05-05 10:02 29.23438 47.96901 164 ft 19 kts 254°
2026-05-05 10:03 29.23476 47.96755 163 ft 19 kts 291°
2026-05-05 10:03 29.23605 47.96638 163 ft 19 kts 334°
2026-05-05 10:03 29.23686 47.96595 164 ft 20 kts 336°
2026-05-05 10:03 29.23813 47.96529 164 ft 18 kts 335°
2026-05-05 10:04 29.23933 47.96465 163 ft 20 kts 335°
2026-05-05 10:04 29.24058 47.96397 163 ft 10 kts 334°
2026-05-05 10:04 29.24089 47.96332 162 ft 12 kts 263°
2026-05-05 10:04 29.24050 47.96229 159 ft 16 kts 241°
2026-05-05 10:05 29.23956 47.96202 159 ft 14 kts 159°
2026-05-05 10:05 29.23937 47.96212 159 ft 0 kts 154°
2026-05-05 10:05 29.23852 47.96258 159 ft 43 kts 156°
2026-05-05 10:05 29.23378 47.96510 162 ft 105 kts 155°
2026-05-05 10:06 29.22559 47.96945 165 ft 152 kts 155°
2026-05-05 10:06 29.21589 47.97457 696 ft 151 kts 155°
2026-05-05 10:06 29.20619 47.97973 1182 ft 159 kts 153°
2026-05-05 10:06 29.19586 47.98533 1686 ft 165 kts 153°
2026-05-05 10:07 29.18560 47.99109 2284 ft 169 kts 147°
2026-05-05 10:07 29.17673 48.00101 2598 ft 191 kts 126°
2026-05-05 10:07 29.17140 48.01567 3004 ft 212 kts 110°
2026-05-05 10:07 29.16707 48.03298 3266 ft 238 kts 110°
2026-05-05 10:08 29.16246 48.05205 3629 ft 259 kts 109°
2026-05-05 10:08 29.15776 48.07206 4237 ft 268 kts 109°
2026-05-05 10:08 29.15307 48.09296 4952 ft 275 kts 105°
2026-05-05 10:08 29.15088 48.11486 5730 ft 282 kts 95°
2026-05-05 10:09 29.15102 48.13762 6433 ft 289 kts 93°
2026-05-05 10:09 29.15116 48.16069 7184 ft 292 kts 94°
2026-05-05 10:09 29.15124 48.18415 7390 ft 296 kts 92°
2026-05-05 10:09 29.15535 48.20736 7478 ft 304 kts 68°
2026-05-05 10:10 29.16802 48.22701 7890 ft 313 kts 45°
2026-05-05 10:10 29.18436 48.24346 8737 ft 313 kts 40°
2026-05-05 10:10 29.20121 48.25952 9490 ft 318 kts 40°
2026-05-05 10:10 29.21812 48.27606 10176 ft 323 kts 41°
2026-05-05 10:11 29.23542 48.29361 10464 ft 344 kts 42°
2026-05-05 10:11 29.25370 48.31265 10672 ft 366 kts 43°
2026-05-05 10:11 29.27250 48.33250 11105 ft 377 kts 43°
2026-05-05 10:11 29.29184 48.35303 11776 ft 381 kts 43°
2026-05-05 10:12 29.31142 48.37382 12446 ft 386 kts 43°
2026-05-05 10:12 29.33025 48.39598 13107 ft 391 kts 53°
2026-05-05 10:12 29.34395 48.42298 13733 ft 394 kts 70°
2026-05-05 10:12 29.35146 48.45324 14303 ft 398 kts 79°
2026-05-05 10:13 29.35761 48.48433 14900 ft 402 kts 79°
2026-05-05 10:13 29.36385 48.51569 15518 ft 406 kts 78°
2026-05-05 10:13 29.37019 48.54744 16118 ft 411 kts 78°
2026-05-05 10:13 29.37662 48.57951 16722 ft 415 kts 78°
2026-05-05 10:14 29.38313 48.61195 17309 ft 420 kts 78°
2026-05-05 10:14 29.38971 48.64474 17899 ft 424 kts 77°
2026-05-05 10:14 29.39634 48.67786 18452 ft 428 kts 77°
2026-05-05 10:14 29.40302 48.71122 18983 ft 431 kts 77°
2026-05-05 10:15 29.40974 48.74483 19505 ft 434 kts 77°
2026-05-05 10:15 29.41653 48.77877 20033 ft 438 kts 78°
2026-05-05 10:15 29.42335 48.81292 20559 ft 441 kts 78°
2026-05-05 10:15 29.43022 48.84735 21096 ft 445 kts 78°
2026-05-05 10:16 29.43716 48.88205 21622 ft 448 kts 78°
2026-05-05 10:16 29.44414 48.91706 22134 ft 452 kts 78°
2026-05-05 10:16 29.45166 48.95224 22651 ft 456 kts 72°
2026-05-05 10:16 29.46480 48.98538 23156 ft 460 kts 57°
2026-05-05 10:17 29.48442 49.01434 23589 ft 461 kts 43°
2026-05-05 10:17 29.50935 49.03732 24007 ft 459 kts 28°
2026-05-05 10:17 29.53793 49.05297 24436 ft 454 kts 13°
2026-05-05 10:17 29.56854 49.06060 24842 ft 447 kts 359°
2026-05-05 10:18 29.59937 49.06022 25261 ft 441 kts 348°
2026-05-05 10:18 29.63004 49.05694 25676 ft 444 kts 349°
2026-05-05 10:18 29.66112 49.05537 26138 ft 450 kts 353°
2026-05-05 10:18 29.69219 49.05608 26529 ft 455 kts 356°
2026-05-05 10:19 29.72435 49.05845 26920 ft 459 kts 358°
2026-05-05 10:19 29.75590 49.06159 27292 ft 463 kts 359°
2026-05-05 10:19 29.78804 49.06511 27663 ft 466 kts 359°
2026-05-05 10:19 29.82038 49.06872 28022 ft 468 kts 359°
2026-05-05 10:20 29.85289 49.07233 28367 ft 471 kts 359°
2026-05-05 10:20 29.88558 49.07593 28707 ft 473 kts 359°
2026-05-05 10:20 29.91846 49.07953 29034 ft 476 kts 359°
2026-05-05 10:20 29.95146 49.08313 29356 ft 478 kts 359°
2026-05-05 10:21 29.98470 49.08675 29662 ft 481 kts 359°
2026-05-05 10:21 30.01807 49.09039 29949 ft 483 kts 359°
2026-05-05 10:21 30.05163 49.09406 30205 ft 486 kts 359°
2026-05-05 10:21 30.08538 49.09775 30460 ft 488 kts 359°
2026-05-05 10:22 30.11924 49.10146 30723 ft 491 kts 359°
2026-05-05 10:22 30.15339 49.10520 31006 ft 493 kts 358°
2026-05-05 10:22 30.18754 49.10896 31336 ft 493 kts 358°
2026-05-05 10:22 30.22170 49.11272 31665 ft 493 kts 358°
2026-05-05 10:23 30.25587 49.11648 31999 ft 494 kts 358°
2026-05-05 10:23 30.28933 49.12016 32312 ft 494 kts 357°
2026-05-05 10:23 30.32425 49.12401 32664 ft 494 kts 357°
2026-05-05 10:23 30.35850 49.12779 32960 ft 495 kts 357°
2026-05-05 10:24 30.39278 49.13158 33273 ft 495 kts 357°
2026-05-05 10:24 30.42704 49.13535 33577 ft 495 kts 356°
2026-05-05 10:24 30.46131 49.13913 33859 ft 495 kts 356°
2026-05-05 10:24 30.49558 49.14290 34104 ft 495 kts 356°
2026-05-05 10:25 30.52985 49.14667 34342 ft 495 kts 356°
2026-05-05 10:25 30.56404 49.14946 34600 ft 488 kts 351°
2026-05-05 10:25 30.59786 49.14904 34806 ft 486 kts 349°
2026-05-05 10:25 30.63160 49.14854 35035 ft 486 kts 349°
2026-05-05 10:26 30.66543 49.14811 35258 ft 486 kts 349°
2026-05-05 10:26 30.69924 49.14768 35455 ft 486 kts 349°
2026-05-05 10:26 30.73308 49.14725 35665 ft 486 kts 349°
2026-05-05 10:26 30.76685 49.14681 35886 ft 486 kts 349°
2026-05-05 10:27 30.80073 49.14635 36053 ft 487 kts 349°
2026-05-05 10:27 30.83463 49.14590 36245 ft 487 kts 349°
2026-05-05 10:27 30.86852 49.14545 36428 ft 487 kts 349°
2026-05-05 10:27 30.90245 49.14500 36603 ft 487 kts 349°
2026-05-05 10:28 30.93590 49.14455 36724 ft 487 kts 349°
2026-05-05 10:28 30.97019 49.14410 36748 ft 487 kts 349°
2026-05-05 10:28 31.03738 49.14320 36734 ft 486 kts 349°
2026-05-05 10:29 31.10506 49.14228 36733 ft 486 kts 349°
2026-05-05 10:29 31.17276 49.14137 36732 ft 486 kts 349°
2026-05-05 10:30 31.24046 49.14047 36734 ft 486 kts 349°
2026-05-05 10:30 31.30816 49.13956 36734 ft 486 kts 349°
2026-05-05 10:31 31.37579 49.13865 36742 ft 486 kts 349°
2026-05-05 10:31 31.44346 49.13773 36744 ft 486 kts 349°
2026-05-05 10:32 31.51113 49.13682 36746 ft 486 kts 349°
2026-05-05 10:32 31.57881 49.13591 36752 ft 486 kts 349°
2026-05-05 10:33 31.64656 49.13499 36760 ft 487 kts 349°
2026-05-05 10:33 31.71453 49.13529 36766 ft 494 kts 355°
2026-05-05 10:34 31.78323 49.15030 36772 ft 508 kts
2026-05-05 10:34 31.85180 49.17033 36772 ft 508 kts
2026-05-05 10:35 31.92042 49.19025 36791 ft 509 kts
2026-05-05 10:35 31.98910 49.21031 36804 ft 508 kts
2026-05-05 10:36 32.05778 49.23040 36837 ft 509 kts
2026-05-05 10:36 32.12605 49.25046 36814 ft 509 kts
2026-05-05 10:37 32.19468 49.27062 36860 ft 508 kts
2026-05-05 10:37 32.26333 49.29077 36878 ft 509 kts
2026-05-05 10:38 32.33187 49.31058 36925 ft 508 kts
2026-05-05 10:38 32.40058 49.33089 36890 ft 507 kts
2026-05-05 10:39 32.46903 49.35079 36946 ft 506 kts
2026-05-05 10:39 32.53749 49.37140 36952 ft 508 kts
2026-05-05 10:40 32.60592 49.39173 37007 ft 508 kts
2026-05-05 10:40 32.67397 49.41192 37018 ft 497 kts
2026-05-05 10:41 32.74119 49.43182 37037 ft 498 kts
2026-05-05 10:41 32.80898 49.45216 37079 ft 507 kts
2026-05-05 10:42 32.91173 49.48290 37085 ft 507 kts
2026-05-05 10:43 32.98023 49.50325 37095 ft 507 kts
2026-05-05 10:43 33.04811 49.52349 37098 ft 499 kts
2026-05-05 10:44 33.11492 49.54356 37109 ft 500 kts
2026-05-05 10:44 33.18220 49.56369 37105 ft 496 kts
2026-05-05 10:45 33.24946 49.58389 37098 ft 499 kts
2026-05-05 10:45 33.31686 49.60417 37104 ft 501 kts
2026-05-05 10:46 33.38445 49.62454 37095 ft 500 kts
2026-05-05 10:46 33.45186 49.64490 37109 ft 500 kts
2026-05-05 10:47 33.51863 49.66512 37088 ft 494 kts
2026-05-05 10:47 33.58548 49.68534 37090 ft 495 kts
2026-05-05 10:48 33.65226 49.70561 37090 ft 495 kts
2026-05-05 10:48 33.71899 49.72582 37091 ft 495 kts
2026-05-05 10:49 33.78582 49.74615 37086 ft 495 kts
2026-05-05 10:49 33.85235 49.76653 37084 ft 493 kts
2026-05-05 10:50 33.91892 49.78687 37092 ft 495 kts
2026-05-05 10:50 33.98525 49.80717 37080 ft 495 kts
2026-05-05 10:51 34.05201 49.82764 37078 ft 495 kts
2026-05-05 10:51 34.11865 49.84827 37074 ft 497 kts
2026-05-05 10:52 34.18341 49.88067 37063 ft 509 kts 20°
2026-05-05 10:52 34.24718 49.91780 37064 ft 508 kts 20°
2026-05-05 10:53 34.30062 49.94883 37062 ft 508 kts 20°
2026-05-05 10:53 34.36387 49.98568 37062 ft 509 kts 20°
2026-05-05 10:54 34.42745 50.02284 37058 ft 504 kts 20°
2026-05-05 10:54 34.49062 50.05981 37045 ft 505 kts 20°
2026-05-05 10:55 34.55388 50.09689 37044 ft 505 kts 20°
2026-05-05 10:55 34.61715 50.13407 37034 ft 505 kts 20°
2026-05-05 10:56 34.68033 50.17119 37016 ft 500 kts 20°
2026-05-05 10:56 34.74287 50.20777 37008 ft 503 kts 20°
2026-05-05 10:57 34.80622 50.24525 36977 ft 508 kts 20°
2026-05-05 10:57 34.86977 50.28312 36975 ft 508 kts 20°
2026-05-05 10:58 34.93326 50.32078 36975 ft 508 kts 20°
2026-05-05 10:58 34.99736 50.35621 36965 ft 501 kts 11°
2026-05-05 10:59 35.06444 50.37009 36961 ft 481 kts 352°
2026-05-05 10:59 35.13093 50.36846 36974 ft 477 kts 350°
2026-05-05 11:00 35.19704 50.36688 36966 ft 474 kts 350°
2026-05-05 11:00 35.26302 50.36519 36974 ft 475 kts 350°
2026-05-05 11:01 35.32913 50.36351 36998 ft 475 kts 350°
2026-05-05 11:01 35.39506 50.36180 36966 ft 477 kts 350°
2026-05-05 11:02 35.46141 50.36012 36968 ft 477 kts 350°
2026-05-05 11:02 35.52777 50.35841 36971 ft 478 kts 350°
2026-05-05 11:03 35.59447 50.35673 36963 ft 479 kts 351°
2026-05-05 11:03 35.66111 50.35515 36964 ft 478 kts 351°
2026-05-05 11:04 35.72765 50.35350 36970 ft 479 kts 350°
2026-05-05 11:04 35.79431 50.35181 36965 ft 479 kts 350°
2026-05-05 11:05 35.86088 50.35011 36966 ft 479 kts 350°
2026-05-05 11:05 35.92711 50.34843 36966 ft 479 kts 350°
2026-05-05 11:06 35.99418 50.34671 36981 ft 479 kts 350°
2026-05-05 11:06 36.06081 50.34498 36983 ft 479 kts 350°
2026-05-05 11:07 36.12699 50.34326 36985 ft 478 kts 350°
2026-05-05 11:07 36.19344 50.34153 36986 ft 478 kts 350°
2026-05-05 11:08 36.25992 50.33979 36991 ft 478 kts 350°
2026-05-05 11:08 36.32658 50.33770 36996 ft 481 kts 349°
2026-05-05 11:09 36.39324 50.33485 37005 ft 479 kts 349°
2026-05-05 11:09 36.45985 50.33202 37011 ft 480 kts 349°
2026-05-05 11:10 36.52691 50.32921 37001 ft 484 kts 349°
2026-05-05 11:10 36.59308 50.32649 36992 ft 483 kts 349°
2026-05-05 11:11 36.66022 50.32378 36986 ft 483 kts 349°
2026-05-05 11:11 36.72653 50.32114 36976 ft 483 kts 349°
2026-05-05 11:12 36.79361 50.31830 36982 ft 483 kts 349°
2026-05-05 11:12 36.86082 50.31552 36969 ft 482 kts 349°
2026-05-05 11:13 36.92794 50.31272 36948 ft 483 kts 349°
2026-05-05 11:13 36.99509 50.30996 36949 ft 484 kts 349°
2026-05-05 11:14 37.06207 50.30713 36949 ft 486 kts 349°
2026-05-05 11:14 37.12953 50.30314 36947 ft 484 kts 348°
2026-05-05 11:15 37.19683 50.29881 36945 ft 485 kts 349°
2026-05-05 11:15 37.26500 50.29454 36947 ft 489 kts 349°
2026-05-05 11:16 37.33205 50.29046 36945 ft 488 kts 349°
2026-05-05 11:16 37.40041 50.28627 36949 ft 489 kts 349°
2026-05-05 11:17 37.46848 50.28207 36936 ft 490 kts 349°
2026-05-05 11:17 37.53651 50.27789 36936 ft 490 kts 349°
2026-05-05 11:18 37.60417 50.27371 36937 ft 491 kts 349°
2026-05-05 11:18 37.67239 50.26949 36935 ft 491 kts 349°
2026-05-05 11:19 37.74052 50.26528 36931 ft 489 kts 349°
2026-05-05 11:19 37.80884 50.26104 36930 ft 489 kts 349°
2026-05-05 11:20 37.87640 50.25682 36931 ft 489 kts 349°
2026-05-05 11:20 37.94433 50.25259 36943 ft 490 kts 349°
2026-05-05 11:21 38.01227 50.24836 36930 ft 488 kts 349°
2026-05-05 11:21 38.07999 50.24413 36929 ft 488 kts 349°
2026-05-05 11:21 38.11396 50.24201 36795 ft 489 kts 349°
2026-05-05 11:22 38.14810 50.23984 36159 ft 493 kts 349°
2026-05-05 11:22 38.18269 50.23898 35326 ft 503 kts 355°
2026-05-05 11:22 38.21785 50.24046 34433 ft 509 kts 355°
2026-05-05 11:22 38.25334 50.24190 33627 ft 511 kts 355°
2026-05-05 11:23 38.28889 50.24334 32866 ft 510 kts 355°
2026-05-05 11:23 38.32435 50.24477 32060 ft 511 kts 356°
2026-05-05 11:23 38.35986 50.24618 31333 ft 510 kts 356°
2026-05-05 11:23 38.39515 50.24761 30818 ft 504 kts 356°
2026-05-05 11:24 38.43005 50.24903 30266 ft 500 kts 356°
2026-05-05 11:24 38.46467 50.25043 29628 ft 496 kts 356°
2026-05-05 11:24 38.49900 50.25182 29163 ft 490 kts 356°
2026-05-05 11:24 38.53289 50.25319 28588 ft 485 kts 356°
2026-05-05 11:25 38.56641 50.25455 28051 ft 479 kts 356°
2026-05-05 11:25 38.59953 50.25589 27529 ft 474 kts 356°
2026-05-05 11:25 38.63238 50.25721 26986 ft 470 kts 356°
2026-05-05 11:25 38.66479 50.25852 26485 ft 465 kts 356°
2026-05-05 11:26 38.69700 50.25982 25998 ft 461 kts 356°
2026-05-05 11:26 38.72907 50.26110 25432 ft 459 kts 356°
2026-05-05 11:26 38.76074 50.26238 24944 ft 454 kts 356°
2026-05-05 11:26 38.79227 50.26366 24444 ft 451 kts 356°
2026-05-05 11:27 38.82354 50.26493 23935 ft 449 kts 356°
2026-05-05 11:27 38.85472 50.26619 23388 ft 447 kts 356°
2026-05-05 11:27 38.88561 50.26746 22879 ft 441 kts 356°
2026-05-05 11:27 38.91618 50.26870 22386 ft 437 kts 356°
2026-05-05 11:28 38.94639 50.26993 21880 ft 433 kts 356°
2026-05-05 11:28 38.97635 50.27116 21387 ft 429 kts 356°
2026-05-05 11:28 39.00606 50.27238 20889 ft 425 kts 356°
2026-05-05 11:28 39.03549 50.27358 20406 ft 421 kts 356°
2026-05-05 11:29 39.06462 50.27477 19923 ft 418 kts 356°
2026-05-05 11:29 39.09359 50.27595 19444 ft 415 kts 356°
2026-05-05 11:29 39.12237 50.27712 18935 ft 413 kts 356°
2026-05-05 11:29 39.15099 50.27829 18464 ft 410 kts 356°
2026-05-05 11:30 39.17945 50.27945 17923 ft 408 kts 356°
2026-05-05 11:30 39.20721 50.28060 17467 ft 403 kts 356°
2026-05-05 11:30 39.23510 50.28175 16992 ft 399 kts 356°
2026-05-05 11:30 39.26273 50.28289 16523 ft 395 kts 356°
2026-05-05 11:31 39.29012 50.28402 16038 ft 393 kts 356°
2026-05-05 11:31 39.31732 50.28516 15576 ft 390 kts 356°
2026-05-05 11:31 39.34431 50.28629 15106 ft 386 kts 356°
2026-05-05 11:31 39.37102 50.28739 14648 ft 383 kts 356°
2026-05-05 11:32 39.39759 50.28848 14191 ft 380 kts 356°
2026-05-05 11:32 39.42393 50.28956 13710 ft 377 kts 356°
2026-05-05 11:32 39.45005 50.29063 13237 ft 374 kts 356°
2026-05-05 11:32 39.47585 50.29168 12793 ft 369 kts 357°
2026-05-05 11:33 39.50138 50.29273 12356 ft 365 kts 357°
2026-05-05 11:33 39.52669 50.29377 11897 ft 362 kts 358°
2026-05-05 11:33 39.55179 50.29479 11453 ft 359 kts 358°
2026-05-05 11:33 39.57667 50.29578 11018 ft 356 kts 359°
2026-05-05 11:34 39.60134 50.29677 10567 ft 353 kts 359°
2026-05-05 11:34 39.62566 50.29776 10333 ft 344 kts 359°
2026-05-05 11:34 39.64912 50.29876 10209 ft 331 kts 359°
2026-05-05 11:34 39.67181 50.29973 9992 ft 322 kts 359°
2026-05-05 11:35 39.69402 50.30065 9736 ft 315 kts 360°
2026-05-05 11:35 39.71576 50.30156 9590 ft 314 kts 359°
2026-05-05 11:35 39.73783 50.30247 9245 ft 319 kts 359°
2026-05-05 11:35 39.76007 50.30339 8883 ft 319 kts 359°
2026-05-05 11:36 39.78219 50.30432 8497 ft 317 kts 359°
2026-05-05 11:36 39.80411 50.30525 8124 ft 314 kts 359°
2026-05-05 11:36 39.82579 50.30575 7786 ft 309 kts 354°
2026-05-05 11:36 39.84639 50.30186 7526 ft 299 kts 342°
2026-05-05 11:37 39.86611 50.29397 7183 ft 295 kts 338°
2026-05-05 11:37 39.88561 50.28591 6835 ft 293 kts 338°
2026-05-05 11:37 39.90499 50.27803 6532 ft 289 kts 338°
2026-05-05 11:37 39.92382 50.27047 6424 ft 277 kts 337°
2026-05-05 11:38 39.94189 50.26317 6326 ft 266 kts 337°
2026-05-05 11:38 39.95892 50.25547 6174 ft 252 kts 324°
2026-05-05 11:38 39.97106 50.24110 6074 ft 228 kts 292°
2026-05-05 11:38 39.97505 50.22179 6063 ft 219 kts 262°
2026-05-05 11:39 39.97195 50.20271 6061 ft 215 kts 251°
2026-05-05 11:39 39.96821 50.18388 6061 ft 214 kts 252°
2026-05-05 11:39 39.96492 50.16491 6067 ft 219 kts 260°
2026-05-05 11:39 39.96732 50.14323 5980 ft 264 kts 288°
2026-05-05 11:40 39.97826 50.12336 5862 ft 278 kts 314°
2026-05-05 11:40 39.99555 50.11147 5731 ft 288 kts 341°
2026-05-05 11:40 40.01560 50.10973 5655 ft 289 kts 360°
2026-05-05 11:40 40.03533 50.11160 5580 ft 279 kts 360°
2026-05-05 11:41 40.05450 50.11225 5307 ft 274 kts 355°
2026-05-05 11:41 40.07356 50.11096 4917 ft 274 kts 351°
2026-05-05 11:41 40.09246 50.10823 4534 ft 273 kts 348°
2026-05-05 11:41 40.10488 50.10597 4280 ft 272 kts 348°
2026-05-05 11:42 40.12988 50.10097 3796 ft 271 kts 348°
2026-05-05 11:42 40.14219 50.09843 3548 ft 270 kts 348°
2026-05-05 11:42 40.16073 50.09460 3172 ft 269 kts 348°
2026-05-05 11:42 40.17915 50.09082 2785 ft 267 kts 349°
2026-05-05 11:43 40.19742 50.08708 2407 ft 265 kts 350°
2026-05-05 11:43 40.21529 50.08345 2195 ft 256 kts 351°
2026-05-05 11:43 40.23249 50.08000 2084 ft 244 kts 351°
2026-05-05 11:43 40.24883 50.07671 2017 ft 230 kts 351°
2026-05-05 11:44 40.26409 50.07363 2005 ft 214 kts 351°
2026-05-05 11:44 40.27826 50.07079 2003 ft 198 kts 351°
2026-05-05 11:44 40.29124 50.06822 2015 ft 179 kts 351°
2026-05-05 11:44 40.30263 50.06596 2007 ft 152 kts 351°
2026-05-05 11:45 40.31230 50.06513 2004 ft 130 kts 359°
2026-05-05 11:45 40.32147 50.06526 1994 ft 131 kts 359°
2026-05-05 11:45 40.33110 50.06512 2017 ft 154 kts 358°
2026-05-05 11:45 40.34201 50.06496 2003 ft 156 kts 359°
2026-05-05 11:46 40.35297 50.06481 1981 ft 159 kts 359°
2026-05-05 11:46 40.36405 50.06464 1821 ft 158 kts 359°
2026-05-05 11:46 40.37507 50.06447 1596 ft 156 kts 360°
2026-05-05 11:46 40.38538 50.06432 1386 ft 141 kts 359°
2026-05-05 11:47 40.39471 50.06417 1197 ft 129 kts 360°
2026-05-05 11:47 40.40379 50.06403 1027 ft 131 kts 360°
2026-05-05 11:47 40.41295 50.06390 852 ft 133 kts 359°
2026-05-05 11:47 40.42204 50.06376 695 ft 127 kts 359°
2026-05-05 11:48 40.43961 50.06349 385 ft 126 kts 358°
2026-05-05 11:48 40.44835 50.06338 226 ft 126 kts 357°
2026-05-05 11:48 40.45710 50.06323 62 ft 125 kts 357°
2026-05-05 11:49 40.46513 50.06329 15 ft 114 kts
2026-05-05 11:49 40.47000 50.06324 13 ft 45 kts 358°
2026-05-05 11:49 40.47228 50.06313 9 ft 30 kts 358°
2026-05-05 11:49 40.47429 50.06272 10 ft 29 kts 338°
2026-05-05 11:50 40.47546 50.06168 13 ft 13 kts 307°
2026-05-05 11:50 40.47525 50.06086 14 ft 12 kts 194°
2026-05-05 11:50 40.47448 50.06079 14 ft 0 kts 179°
2026-05-05 11:51 40.47447 50.06079 14 ft 1 kts 179°
2026-05-05 11:51 40.47394 50.06081 14 ft 17 kts 179°
2026-05-05 11:51 40.47216 50.06086 14 ft 30 kts 179°
2026-05-05 11:51 40.46994 50.06090 14 ft 31 kts 179°
2026-05-05 11:52 40.46930 50.06091 14 ft 6 kts 179°
2026-05-05 11:52 40.46840 50.06091 14 ft 23 kts 180°
2026-05-05 11:52 40.46642 50.06092 14 ft 28 kts 182°
2026-05-05 11:52 40.46578 50.05907 14 ft 25 kts 266°
2026-05-05 11:53 40.46570 50.05666 14 ft 25 kts 268°
2026-05-05 11:53 40.46572 50.05575 14 ft 4 kts 269°
2026-05-05 11:53 40.46572 50.05516 14 ft 8 kts 278°
2026-05-05 11:53 40.46583 50.05472 14 ft 0 kts 290°
2026-05-05 11:54 40.46585 50.05466 14 ft 3 kts 290°
2026-05-05 11:54 40.46589 50.05451 14 ft 2 kts 289°
2026-05-05 11:54 40.46595 50.05427 17 ft 1 kts 288°
2026-05-05 11:54 40.46596 50.05422 16 ft 0 kts 288°